Location: Quaker Farms
(41.4276°N, 73.1557°W)
Time: 02:18:57
(UTC+00:00)

Altair - Pass Details

Date: 16 June 2021
Orbit: 1501 x 1682 km, 47.2° (Epoch: 23 July)

Event Time Altitude Azimuth Distance (km) Brightness Sun altitude
Rises 03:35:39 0° 290° (WNW) 4,907 10.7 -22.8°
Reaches altitude 10° 03:40:18 10° 272° (W) 3,933 9.9 -23.0°
Maximum altitude 03:46:01 17° 237° (WSW) 3,413 9.1 -23.4°
Enters shadow 03:49:16 14° 215° (SW) 3,588 9.1 -23.5°
Drops below altitude 10° 03:51:45 10° 201° (SSW) 3,932 - -23.7°
Sets 03:56:29 0° 183° (S) 4,905 - -23.9°
